Zurück zum Katalog

STARLINK-3971

AktivKommunikationVLEO
NORAD 52642·PAYLOAD·🇺🇸 United States

Gestartet May 14, 2022 von Cape Canaveral Space Force Station

Loading…

Nächste Überflüge (nächste 24 Stunden)

TLE

AktuellSource: CelesTrak SupGP

Epoche: Sep 15, 2026, 01:22 UTC

1 52642C 22052AW  26258.05743056  .00046425  00000+0  13286-2 0  2583
2 52642  53.1571 117.2115 0001260  81.8892 280.3572 15.35367544    17

Verfolge STARLINK-3971 in Echtzeit mit AllMySat

Download on the App Store